Weather History for Jonesville, VA

Change the Weather History Date:

Thursday, March 14, 2013

  Actual Average (KLOZ) Record (KLOZ)
Temperature  
Mean Temperature 35 °F 47 °F  
Max Temperature 46 °F 58 °F 83 °F (1973)
Min Temperature 24 °F 36 °F -1 °F (1960)
Degree Days  
Heating Degree Days 30 18  
Month to date heating degree days 281  
Since 1 July heating degree days 3557  
Cooling Degree Days 0 0  
Month to date cooling degree days 0  
Year to date cooling degree days 0  
Moisture  
Dew Point 16 °F    
Average Humidity 49    
Maximum Humidity 69    
Minimum Humidity 25    
Precipitation  
Precipitation 0.00 in 0.13 in 1.31 in (1964)
Month to date precipitation 1.83  
Year to date precipitation 9.08  
Sea Level Pressure  
Sea Level Pressure 30.30 in    
Wind  
Wind Speed 5 mph (West)    
Max Wind Speed 13 mph    
Max Gust Speed 16 mph    
Visibility 10 miles    
Events Snow    
T = Trace of Precipitation, MM = Missing Value Source: NWS Daily Summary

Daily Weather History Graph

Daily Weather History Graph

Search for Another Location

Airport:

Trip Planner

Search our weather history database for the weather conditions in past years. The results will help you decide how hot, cold, wet, or windy it might be!

Date:

Astronomy

Mar. 14, 2013 Rise Set
Actual Time 7:44 AM EDT 7:39 PM EDT
Civil Twilight 7:19 AM EDT 8:05 PM EDT
Nautical Twilight 6:49 AM EDT 8:35 PM EDT
Astronomical Twilight 6:18 AM EDT 9:05 PM EDT
Moon 9:03 AM EDT (3/14) 10:48 PM EDT (3/14)
Length of Visible Light 12h 46m
Length of Day
11h 54m
Waxing Crescent, 9% of the Moon is Illuminated
Mar 14
Waxing Crescent
Mar 19
First Quarter
Mar 27
Full
Apr 3
Last Quarter
Apr 10
New

Hourly Weather History & Observations

Time (EDT) Temp. Windchill Dew Point Humidity Pressure Visibility Wind Dir Wind Speed Gust Speed Precip Events Conditions
12:15 AM 30.2 °F 23.4 °F 15.8 °F 55% 30.30 in 10.0 mi WNW 6.9 mph - N/A   Overcast
12:35 AM 30.2 °F 21.9 °F 17.6 °F 60% 30.31 in 10.0 mi WNW 9.2 mph - N/A Snow Light Snow
12:55 AM 30.2 °F 23.4 °F 17.6 °F 60% 30.31 in 10.0 mi NW 6.9 mph - N/A Snow Light Snow
1:15 AM 28.4 °F 20.4 °F 17.6 °F 64% 30.31 in 10.0 mi NNW 8.1 mph - N/A Snow Light Snow
1:35 AM 28.4 °F 21.2 °F 15.8 °F 59% 30.31 in 10.0 mi NW 6.9 mph - N/A   Overcast
1:55 AM 28.4 °F 24.6 °F 17.6 °F 64% 30.31 in 10.0 mi WNW 3.5 mph - N/A   Overcast
2:15 AM 28.4 °F 20.4 °F 17.6 °F 64% 30.31 in 10.0 mi NW 8.1 mph - N/A   Overcast
2:35 AM 28.4 °F - 15.8 °F 59% 30.31 in 10.0 mi Calm Calm - N/A   Overcast
2:55 AM 28.4 °F 23.3 °F 17.6 °F 64% 30.32 in 10.0 mi NW 4.6 mph - N/A   Overcast
3:15 AM 28.4 °F 21.2 °F 17.6 °F 64% 30.32 in 10.0 mi NW 6.9 mph - N/A   Overcast
3:35 AM 28.4 °F 21.2 °F 17.6 °F 64% 30.32 in 10.0 mi NNW 6.9 mph - N/A   Overcast
3:55 AM 28.4 °F 22.2 °F 15.8 °F 59% 30.32 in 10.0 mi NNW 5.8 mph - N/A   Overcast
4:15 AM 28.4 °F 22.2 °F 15.8 °F 59% 30.32 in 10.0 mi NW 5.8 mph - N/A   Overcast
4:35 AM 26.6 °F 22.6 °F 15.8 °F 64% 30.32 in 10.0 mi NW 3.5 mph - N/A   Overcast
4:55 AM 26.6 °F 20.0 °F 15.8 °F 64% 30.32 in 10.0 mi WNW 5.8 mph - N/A   Overcast
5:15 AM 26.6 °F 19.1 °F 15.8 °F 64% 30.32 in 10.0 mi West 6.9 mph - N/A   Overcast
5:35 AM 26.6 °F 22.6 °F 15.8 °F 64% 30.33 in 10.0 mi WNW 3.5 mph - N/A   Overcast
5:55 AM 26.6 °F - 15.8 °F 64% 30.34 in 10.0 mi Calm Calm - N/A   Overcast
6:15 AM 24.8 °F 20.5 °F 15.8 °F 69% 30.35 in 10.0 mi WNW 3.5 mph - N/A   Overcast
6:35 AM 24.8 °F 19.1 °F 15.8 °F 69% 30.35 in 10.0 mi NW 4.6 mph - N/A   Overcast
6:55 AM 24.8 °F - 15.8 °F 69% 30.36 in 10.0 mi Calm Calm - N/A   Overcast
7:15 AM 24.8 °F - 15.8 °F 69% 30.36 in 10.0 mi Calm Calm - N/A   Overcast
7:35 AM 24.8 °F - 15.8 °F 69% 30.37 in 10.0 mi Calm Calm - N/A   Mostly Cloudy
7:55 AM 24.8 °F - 15.8 °F 69% 30.37 in 10.0 mi Calm Calm - N/A   Partly Cloudy
8:15 AM 24.8 °F - 15.8 °F 69% 30.36 in 10.0 mi Calm Calm - N/A   Clear
8:35 AM 26.6 °F - 17.6 °F 69% 30.36 in 10.0 mi Calm Calm - N/A   Clear
8:55 AM 26.6 °F - 17.6 °F 69% 30.37 in 10.0 mi Calm Calm - N/A   Clear
9:15 AM 28.4 °F 24.6 °F 17.6 °F 64% 30.37 in 10.0 mi WNW 3.5 mph - N/A   Clear
9:35 AM 28.4 °F - 17.6 °F 64% 30.37 in 10.0 mi Calm Calm - N/A   Partly Cloudy
10:15 AM 30.2 °F 24.3 °F 15.8 °F 55% 30.38 in 10.0 mi NW 5.8 mph - N/A   Clear
10:55 AM 30.2 °F 26.7 °F 15.8 °F 55% 30.36 in 10.0 mi South 3.5 mph - N/A   Partly Cloudy
11:15 AM 32.0 °F 28.7 °F 14.0 °F 48% 30.36 in 10.0 mi West 3.5 mph - N/A   Clear
11:35 AM 32.0 °F 26.4 °F 15.8 °F 51% 30.36 in 10.0 mi SW 5.8 mph - N/A   Clear
11:55 AM 33.8 °F - 15.8 °F 48% 30.36 in 10.0 mi Calm Calm - N/A   Clear
12:15 PM 35.6 °F - 14.0 °F 41% 30.35 in 10.0 mi Calm Calm - N/A   Clear
12:35 PM 35.6 °F - 14.0 °F 41% 30.34 in 10.0 mi Calm Calm - N/A   Clear
12:55 PM 37.4 °F 31.4 °F 14.0 °F 38% 30.34 in 10.0 mi SW 8.1 mph - N/A   Clear
1:15 PM 37.4 °F 32.8 °F 14.0 °F 38% 30.34 in 10.0 mi SSW 5.8 mph - N/A   Clear
1:35 PM 37.4 °F 34.9 °F 14.0 °F 38% 30.32 in 10.0 mi SW 3.5 mph - N/A   Clear
1:55 PM 39.2 °F 33.6 °F 14.0 °F 36% 30.31 in 10.0 mi SSW 8.1 mph - N/A   Clear
2:15 PM 39.2 °F 37.0 °F 12.2 °F 33% 30.30 in 10.0 mi SSE 3.5 mph - N/A   Clear
2:35 PM 41.0 °F 38.0 °F 14.0 °F 33% 30.30 in 10.0 mi SW 4.6 mph - N/A   Clear
2:55 PM 41.0 °F 35.2 °F 14.0 °F 33% 30.29 in 10.0 mi WSW 9.2 mph - N/A   Clear
3:15 PM 42.8 °F 37.5 °F 12.2 °F 29% 30.28 in 10.0 mi SW 9.2 mph - N/A   Clear
3:35 PM 44.6 °F 42.2 °F 12.2 °F 27% 30.27 in 10.0 mi WSW 4.6 mph - N/A   Clear
3:55 PM 44.6 °F 40.2 °F 10.4 °F 25% 30.26 in 10.0 mi WSW 8.1 mph - N/A   Clear
4:15 PM 44.6 °F 40.2 °F 10.4 °F 25% 30.26 in 10.0 mi West 8.1 mph 16.1 mph N/A   Clear
4:35 PM 44.6 °F 38.4 °F 12.2 °F 27% 30.26 in 10.0 mi West 12.7 mph - N/A   Clear
5:15 PM 44.6 °F 43.1 °F 10.4 °F 25% 30.24 in 10.0 mi West 3.5 mph - N/A   Clear
5:35 PM 44.6 °F 43.1 °F 12.2 °F 27% 30.24 in 10.0 mi West 3.5 mph - N/A   Clear
5:55 PM 46.4 °F 43.5 °F 14.0 °F 27% 30.23 in 10.0 mi West 5.8 mph - N/A   Clear
6:15 PM 46.4 °F 41.9 °F 14.0 °F 27% 30.23 in 10.0 mi West 9.2 mph - N/A   Clear
6:35 PM 44.6 °F 41.4 °F 14.0 °F 29% 30.23 in 10.0 mi West 5.8 mph - N/A   Clear
6:55 PM 42.8 °F 40.1 °F 14.0 °F 31% 30.23 in 10.0 mi West 4.6 mph - N/A   Partly Cloudy
7:15 PM 42.8 °F 39.3 °F 14.0 °F 31% 30.23 in 10.0 mi West 5.8 mph - N/A   Mostly Cloudy
7:35 PM 41.0 °F 38.0 °F 14.0 °F 33% 30.23 in 10.0 mi West 4.6 mph - N/A   Overcast
7:55 PM 41.0 °F 38.0 °F 15.8 °F 36% 30.23 in 10.0 mi WNW 4.6 mph - N/A   Overcast
8:15 PM 41.0 °F 38.0 °F 17.6 °F 39% 30.23 in 10.0 mi WNW 4.6 mph - N/A   Overcast
8:35 PM 41.0 °F 38.0 °F 15.8 °F 36% 30.23 in 10.0 mi WNW 4.6 mph - N/A   Overcast
8:55 PM 41.0 °F 39.0 °F 15.8 °F 36% 30.23 in 10.0 mi West 3.5 mph - N/A   Overcast
9:15 PM 41.0 °F 39.0 °F 15.8 °F 36% 30.23 in 10.0 mi West 3.5 mph - N/A   Overcast
9:35 PM 39.2 °F - 17.6 °F 42% 30.23 in 10.0 mi Calm Calm - N/A   Overcast
9:55 PM 39.2 °F - 21.2 °F 49% 30.24 in 10.0 mi Calm Calm - N/A   Mostly Cloudy
10:15 PM 39.2 °F - 17.6 °F 42% 30.24 in 10.0 mi Calm Calm - N/A   Mostly Cloudy
10:35 PM 37.4 °F 32.8 °F 17.6 °F 45% 30.24 in 10.0 mi West 5.8 mph - N/A   Overcast
10:55 PM 37.4 °F - 19.4 °F 48% 30.25 in 10.0 mi Calm Calm - N/A   Overcast
11:15 PM 35.6 °F - 19.4 °F 52% 30.24 in 10.0 mi Calm Calm - N/A   Overcast
11:35 PM 35.6 °F - 19.4 °F 52% 30.24 in 10.0 mi Calm Calm - N/A   Overcast
11:55 PM 35.6 °F - 19.4 °F 52% 30.25 in 10.0 mi Calm Calm - N/A   Overcast